OpenBCM V1.13 (Linux)

Packet Radio Mailbox

DB0FHN

[JN59NK Nuernberg]

 Login: GUEST





  
UA9FBV > KEPS     11.12.04 08:16l 95 Lines 2476 Bytes #999 (0) @ AMSAT
BID : ORB04345.M
Read: GUEST
Subj: Orbital Elements  04345.MISC
Path: DB0FHN<DB0FOR<DB0SIF<DB0EA<DB0RES<ER3KAZ<UA9FBV
Sent: 041211/0608Z @:UA9FBV.PRM.RUS.AS #:12667 [Perm] GATEWAY $:ORB04345.M
From: UA9FBV@UA9FBV.PRM.RUS.AS
To  : KEPS@AMSAT


HR AMSAT ORBITAL ELEMENTS FOR MANNED AND MISCELLANEOUS SATELLITES
FROM WA5QGD FORT WORTH,TX December 10, 2004
SEND SUBSCRIBE/UNSUBSCRIBE TO majordomo@amsat.org ONLY
BID: ORB04345.M
TO ALL RADIO AMATEURS BT

Satellite: HUBBLE
Catalog number: 20580
Epoch time:      04345.24852258
Element set:     224
Inclination:       28.4663 deg
RA of node:        59.6441 deg
Eccentricity:    0.0003723
Arg of perigee:    65.9355 deg
Mean anomaly:     294.1626 deg
Mean motion:   14.99484433 rev/day
Decay rate:      1.042e-05 rev/day^2
Epoch rev:           60185
Checksum:              295

Satellite: UARS
Catalog number: 21701
Epoch time:      04345.79961671
Element set:     330
Inclination:       56.9798 deg
RA of node:       233.6479 deg
Eccentricity:    0.0005207
Arg of perigee:    81.2801 deg
Mean anomaly:     278.8824 deg
Mean motion:   15.03708573 rev/day
Decay rate:       4.72e-06 rev/day^2
Epoch rev:           72515
Checksum:              311

Satellite: PO-34
Catalog number: 25520
Epoch time:      04345.78529921
Element set:      69
Inclination:       28.4595 deg
RA of node:       131.5824 deg
Eccentricity:    0.0005335
Arg of perigee:   333.4049 deg
Mean anomaly:      26.6283 deg
Mean motion:   15.15965643 rev/day
Decay rate:      1.219e-05 rev/day^2
Epoch rev:           33796
Checksum:              316

Satellite: ISS
Catalog number: 25544
Epoch time:      04345.93660348
Element set:     336
Inclination:       51.6374 deg
RA of node:       143.5907 deg
Eccentricity:    0.0004324
Arg of perigee:    97.7995 deg
Mean anomaly:      40.2560 deg
Mean motion:   15.71197684 rev/day
Decay rate:     1.6609e-04 rev/day^2
Epoch rev:           34608
Checksum:              317

Satellite: OO-38
Catalog number: 26063
Epoch time:      04344.56999516
Element set:     230
Inclination:      100.2243 deg
RA of node:       163.7184 deg
Eccentricity:    0.0036771
Arg of perigee:   228.1747 deg
Mean anomaly:     131.6291 deg
Mean motion:   14.35688849 rev/day
Decay rate:       1.11e-06 rev/day^2
Epoch rev:           25508
Checksum:              307

Satellite: NO-45
Catalog number: 26932
Epoch time:      04345.16789124
Element set:     913
Inclination:       67.0608 deg
RA of node:       354.2518 deg
Eccentricity:    0.0007877
Arg of perigee:   282.3647 deg
Mean anomaly:      77.6498 deg
Mean motion:   14.29459914 rev/day
Decay rate:        4.4e-07 rev/day^2
Epoch rev:           16678
Checksum:              350



Read previous mail | Read next mail


 13.09.2026 20:30:47lGo back Go up